Location: Bauen
(46.9356°N, 8.5784°E)
Time: 11:56:51
(UTC+00:00)

Cosmos 1140 Rocket - Pass Details

Date: 18 February 2020
Orbit: 745 x 766 km, 74.1° (Epoch: 09 April)

Event Time Altitude Azimuth Distance (km) Brightness Sun altitude
Rises 05:53:37 0° 223° (SW) 3,221 6.4 -6.2°
Reaches altitude 10° 05:56:08 10° 231° (SW) 2,301 5.6 -5.8°
Maximum altitude 06:01:01 40° 300° (WNW) 1,132 4.0 -5.0°
Drops below altitude 10° 06:05:57 10° 10° (N) 2,316 6.0 -4.2°
Sets 06:08:30 0° 18° (NNE) 3,245 6.8 -3.8°
